Starlink 35307

operational
NORAD ID: 66013 Int'l Des: 2025-232 Owner: SPXS Country: US Constellation: starlink
LEOCIRCULAR

Starlink 35307について

説明を読み込み中...

リアルタイム位置

3D地球を読み込み中...

次回通過

高度履歴

Altitude vs Time

uPlot chart will show altitude changes over time

軌道要素

1 66013C 25232J 25290.41020833 .01002600 00000+0 13895-2 0 2909
2 66013 53.1575 58.9224 0008619 285.9576 202.3362 16.04205771 12
Epoch: Oct 17, 2025 • Age: 62 hours

現在のステータス

高度 255.1 km
速度 7.75 km/s
衛星直下点 -20.62°S, 0.88°W
打ち上げ日 Oct 16, 2025
運用期間 3 days
タイプ internet

技術仕様

分類 Payload
質量 575.00 kg
乾燥質量 530.00 kg
総質量 575.00 kg
長さ 0.30 m
直径 4.10 m
スパン 29.00 m
形状 Box + pan
製造者 SPXS
バスタイプ Starlink V2MO
フェーズステータス In Orbit
所有者/国 SPXS/US

大規模コンステレーション

Loading constellations...